contact:dominique.lefevre@mio.osupytheas.fr, maurice.libes@osupytheas.fr, didier.mallarino@osupytheas.fr
Project:EMSO http://www.emso-fr.org/EMSO-France
Depth: 2436.0 m
Title:EMSO Ligure Ouest : Data MII capteur AQUADOPP
Date,Latitude,Longitude,X_East,Y_North,Z_Up,Amplitude_X,Amplitude_Y,Amplitude_Z,Batterie,SoundSpeed,Heading,Pitch,Roll,Pressure,TIS,Speed,Direction
, degrees North, degrees East, m.s-1, m.s-1,m.s-1, 1, 1, 1, Volt, m.s-1, degree, degree, degree, dbar, degree_C, m.s-1, degree
2019-08-21T00:00:41,42.805,6.029,0.008,-0.011,-0.035,104.0,103.0,99.0,13.4,1505.3,328.2,-0.7,1.8,2470.173,13.33,0.013,144.0
2019-08-21T00:03:42,42.805,6.029,0.017,-0.009,-0.017,104.0,104.0,100.0,13.3,1505.3,325.3,-0.7,1.8,2470.203,13.33,0.019,117.9
2019-08-21T00:06:43,42.805,6.029,0.003,-0.013,-0.029,103.0,105.0,98.0,13.3,1505.3,327.7,-0.7,1.8,2470.202,13.33,0.013,167.0
2019-08-21T00:09:44,42.805,6.029,-0.018,-0.013,-0.052,104.0,105.0,99.0,13.4,1505.3,325.1,-0.7,1.9,2470.14,13.32,0.022,234.2
2019-08-21T00:12:45,42.805,6.029,-0.005,-0.016,-0.039,104.0,105.0,100.0,13.4,1505.3,326.6,-0.7,1.8,2470.17,13.32,0.016,197.4
2019-08-21T00:15:46,42.805,6.029,0.009,-0.029,-0.007,103.0,106.0,99.0,13.3,1505.3,323.0,-0.7,1.8,2470.195,13.32,0.03,162.8
2019-08-21T00:18:47,42.805,6.029,-0.001,-0.025,-0.056,104.0,107.0,99.0,13.4,1505.3,324.7,-0.7,1.9,2470.198,13.32,0.025,182.3
2019-08-21T00:21:48,42.805,6.029,0.023,-0.011,0.006,104.0,106.0,100.0,13.4,1505.3,326.3,-0.7,1.8,2470.155,13.32,0.025,115.6
2019-08-21T00:24:49,42.805,6.029,0.02,-0.023,0.013,103.0,105.0,100.0,13.4,1505.3,324.4,-0.7,1.8,2470.181,13.32,0.03,139.0
2019-08-21T00:27:50,42.805,6.029,0.039,-0.005,0.019,103.0,105.0,99.0,13.4,1505.3,327.7,-0.7,1.8,2470.184,13.32,0.039,97.3
2019-08-21T00:30:51,42.805,6.029,-0.017,-0.009,-0.044,103.0,107.0,101.0,13.4,1505.3,325.3,-0.7,1.8,2470.147,13.32,0.019,242.1
2019-08-21T00:33:52,42.805,6.029,-0.048,-0.016,-0.088,102.0,106.0,100.0,13.4,1505.3,326.0,-0.7,1.8,2470.142,13.32,0.05,251.6
2019-08-21T00:36:53,42.805,6.029,0.015,-0.031,-0.033,103.0,106.0,99.0,13.3,1505.3,326.8,-0.7,1.8,2470.178,13.32,0.034,154.2
2019-08-21T00:39:54,42.805,6.029,0.026,-0.004,-0.015,103.0,105.0,98.0,13.4,1505.3,324.2,-0.7,1.8,2470.178,13.32,0.026,98.7
2019-08-21T00:42:55,42.805,6.029,-0.013,-0.024,-0.049,103.0,106.0,100.0,13.4,1505.3,324.3,-0.7,1.8,2470.158,13.32,0.027,208.4
2019-08-21T00:45:56,42.805,6.029,-0.026,-0.033,-0.039,104.0,107.0,100.0,13.3,1505.3,325.4,-0.7,1.8,2470.178,13.32,0.042,218.2
2019-08-21T00:48:57,42.805,6.029,0.004,-0.001,-0.035,104.0,106.0,100.0,13.4,1505.3,324.9,-0.7,1.9,2470.181,13.32,0.004,104.0
2019-08-21T00:51:58,42.805,6.029,-0.043,-0.017,-0.073,104.0,107.0,99.0,13.4,1505.3,326.6,-0.7,1.8,2470.156,13.32,0.046,248.4
2019-08-21T00:54:59,42.805,6.029,-0.032,-0.025,-0.048,104.0,108.0,98.0,13.4,1505.3,323.0,-0.7,1.8,2470.14,13.32,0.04,232.0
2019-08-21T00:58:00,42.805,6.029,0.006,-0.005,0.0,104.0,107.0,99.0,13.3,1505.3,328.3,-0.7,1.8,2470.147,13.32,0.007,129.8
2019-08-21T01:01:01,42.805,6.029,-0.019,-0.028,-0.058,104.0,106.0,99.0,13.4,1505.3,326.9,-0.7,1.8,2470.149,13.32,0.033,214.2
2019-08-21T01:04:02,42.805,6.029,0.014,-0.018,-0.001,103.0,105.0,100.0,13.3,1505.3,323.0,-0.7,1.8,2470.127,13.32,0.022,142.1
2019-08-21T01:07:03,42.805,6.029,0.026,-0.012,0.016,103.0,106.0,100.0,13.4,1505.3,327.9,-0.7,1.8,2470.131,13.32,0.028,114.8
2019-08-21T01:10:04,42.805,6.029,0.012,-0.007,-0.022,103.0,106.0,100.0,13.4,1505.3,326.8,-0.7,1.9,2470.119,13.32,0.013,120.3
2019-08-21T01:13:05,42.805,6.029,0.006,-0.031,-0.031,103.0,103.0,100.0,13.3,1505.3,324.1,-0.7,1.8,2470.085,13.32,0.031,169.0
2019-08-21T01:16:06,42.805,6.029,-0.006,-0.043,-0.06,102.0,106.0,100.0,13.3,1505.3,328.4,-0.8,1.8,2470.156,13.32,0.043,187.9
2019-08-21T01:19:07,42.805,6.029,-0.045,-0.023,-0.091,103.0,107.0,100.0,13.3,1505.3,326.6,-0.7,1.8,2470.144,13.32,0.05,242.9
2019-08-21T01:22:08,42.805,6.029,0.017,-0.02,-0.047,103.0,106.0,100.0,13.4,1505.3,328.4,-0.7,1.9,2470.166,13.32,0.026,139.6
2019-08-21T01:25:09,42.805,6.029,-0.004,-0.016,0.012,102.0,107.0,101.0,13.3,1505.3,327.2,-0.7,1.8,2470.138,13.32,0.016,194.0
2019-08-21T01:28:10,42.805,6.029,0.008,-0.015,-0.034,103.0,106.0,100.0,13.4,1505.3,326.3,-0.7,1.8,2470.163,13.32,0.017,151.9
2019-08-21T01:31:11,42.805,6.029,0.006,-0.016,-0.029,105.0,106.0,100.0,13.4,1505.3,326.2,-0.7,1.8,2470.161,13.32,0.017,159.4
2019-08-21T01:34:12,42.805,6.029,0.017,-0.02,-0.024,104.0,106.0,99.0,13.3,1505.3,328.0,-0.7,1.8,2470.131,13.32,0.026,139.6
2019-08-21T01:37:13,42.805,6.029,0.003,-0.006,-0.013,103.0,108.0,100.0,13.4,1505.3,326.4,-0.7,1.9,2470.146,13.32,0.006,153.4
2019-08-21T01:40:14,42.805,6.029,0.019,-0.015,-0.008,103.0,106.0,101.0,13.3,1505.3,326.2,-0.7,1.8,2470.097,13.32,0.024,128.3
2019-08-21T01:43:15,42.805,6.029,0.025,-0.023,-0.018,104.0,107.0,100.0,13.3,1505.3,325.2,-0.7,1.8,2470.189,13.32,0.033,132.6
2019-08-21T01:46:16,42.805,6.029,0.004,-0.027,-0.023,102.0,106.0,100.0,13.3,1505.3,324.4,-0.7,1.8,2470.134,13.32,0.027,171.6
2019-08-21T01:49:17,42.805,6.029,0.003,0.005,-0.02,103.0,105.0,100.0,13.3,1505.3,326.6,-0.7,1.8,2470.167,13.32,0.005,31.0
2019-08-21T01:52:18,42.805,6.029,-0.004,-0.009,-0.007,101.0,107.0,100.0,13.4,1505.3,326.3,-0.7,1.8,2470.159,13.32,0.009,204.0
2019-08-21T01:55:19,42.805,6.029,0.019,-0.012,-0.032,103.0,107.0,100.0,13.4,1505.3,327.2,-0.7,1.8,2470.186,13.32,0.022,122.3
2019-08-21T01:58:20,42.805,6.029,0.004,-0.008,-0.038,103.0,105.0,100.0,13.4,1505.3,326.3,-0.7,1.8,2470.129,13.32,0.008,153.4
2019-08-21T02:01:21,42.805,6.029,0.024,-0.017,-0.009,104.0,107.0,100.0,13.3,1505.3,323.4,-0.7,1.8,2470.11,13.32,0.029,125.3
2019-08-21T02:04:22,42.805,6.029,0.009,-0.01,-0.047,104.0,105.0,100.0,13.4,1505.3,327.8,-0.7,1.8,2470.116,13.32,0.013,138.0
2019-08-21T02:07:23,42.805,6.029,-0.021,-0.027,-0.034,103.0,106.0,100.0,13.4,1505.3,325.2,-0.7,1.9,2470.117,13.32,0.034,217.9
2019-08-21T02:10:24,42.805,6.029,0.024,-0.01,-0.014,103.0,104.0,101.0,13.4,1505.3,323.4,-0.7,1.8,2470.134,13.32,0.026,112.6
2019-08-21T02:13:25,42.805,6.029,0.0,-0.032,-0.005,103.0,108.0,100.0,13.4,1505.3,325.1,-0.7,1.8,2470.104,13.32,0.032,180.0
2019-08-21T02:16:26,42.805,6.029,-0.004,-0.022,-0.031,106.0,107.0,100.0,13.3,1505.3,327.1,-0.7,1.8,2470.122,13.32,0.022,190.3
2019-08-21T02:19:27,42.805,6.029,-0.041,-0.026,-0.04,105.0,105.0,100.0,13.4,1505.3,327.3,-0.7,1.9,2470.096,13.32,0.048,237.6
2019-08-21T02:22:28,42.805,6.029,-0.008,-0.016,-0.006,104.0,105.0,100.0,13.4,1505.3,326.7,-0.7,1.8,2470.056,13.32,0.017,206.6
2019-08-21T02:25:29,42.805,6.029,-0.012,-0.022,-0.001,104.0,104.0,100.0,13.4,1505.3,324.7,-0.7,1.8,2470.093,13.32,0.025,208.6
2019-08-21T02:28:30,42.805,6.029,0.014,-0.009,-0.046,103.0,106.0,99.0,13.3,1505.3,327.6,-0.7,1.8,2470.078,13.32,0.016,122.7
2019-08-21T02:31:31,42.805,6.029,-0.018,-0.02,-0.039,103.0,106.0,101.0,13.4,1505.3,326.0,-0.8,1.8,2470.117,13.32,0.026,222.0
2019-08-21T02:34:32,42.805,6.029,-0.012,-0.029,-0.029,104.0,106.0,99.0,13.3,1505.3,328.6,-0.7,1.9,2470.122,13.32,0.031,202.5
2019-08-21T02:37:33,42.805,6.029,0.023,-0.041,-0.002,103.0,108.0,99.0,13.4,1505.3,325.5,-0.7,1.8,2470.114,13.32,0.047,150.7
2019-08-21T02:40:34,42.805,6.029,-0.001,-0.027,-0.002,104.0,107.0,100.0,13.4,1505.3,328.4,-0.7,1.8,2470.113,13.32,0.027,182.1
2019-08-21T02:43:35,42.805,6.029,0.028,-0.034,-0.017,103.0,107.0,100.0,13.4,1505.3,326.6,-0.7,1.8,2470.1,13.32,0.044,140.5
2019-08-21T02:46:36,42.805,6.029,0.004,-0.019,0.001,102.0,107.0,100.0,13.3,1505.3,326.8,-0.8,1.8,2470.123,13.32,0.019,168.1
2019-08-21T02:49:37,42.805,6.029,0.009,-0.012,-0.011,104.0,104.0,100.0,13.4,1505.3,326.3,-0.7,1.8,2470.084,13.32,0.015,143.1
2019-08-21T02:52:38,42.805,6.029,-0.005,-0.025,-0.035,103.0,107.0,99.0,13.3,1505.3,323.9,-0.7,1.8,2470.048,13.32,0.025,191.3
2019-08-21T02:55:39,42.805,6.029,0.009,-0.023,-0.035,104.0,106.0,100.0,13.3,1505.3,327.6,-0.7,1.8,2470.069,13.32,0.024,158.6
2019-08-21T02:58:40,42.805,6.029,0.007,-0.009,-0.041,102.0,103.0,99.0,13.4,1505.3,324.8,-0.7,1.8,2470.087,13.32,0.011,142.1
2019-08-21T03:01:41,42.805,6.029,-0.012,-0.028,-0.014,103.0,104.0,100.0,13.4,1505.3,326.3,-0.7,1.8,2470.118,13.32,0.03,203.2
2019-08-21T03:04:42,42.805,6.029,0.023,-0.008,-0.039,103.0,105.0,99.0,13.4,1505.3,323.7,-0.7,1.8,2470.128,13.32,0.024,109.2
2019-08-21T03:07:43,42.805,6.029,0.018,0.004,-0.016,104.0,106.0,99.0,13.4,1505.3,324.9,-0.7,1.8,2470.038,13.32,0.018,77.5
2019-08-21T03:10:44,42.805,6.029,0.003,-0.023,-0.045,103.0,104.0,100.0,13.4,1505.3,322.7,-0.7,1.8,2470.075,13.32,0.023,172.6
2019-08-21T03:13:45,42.805,6.029,-0.031,-0.037,-0.064,104.0,106.0,100.0,13.4,1505.3,325.5,-0.7,1.8,2470.072,13.32,0.048,220.0
2019-08-21T03:16:46,42.805,6.029,-0.011,-0.022,-0.053,104.0,104.0,100.0,13.4,1505.3,324.2,-0.7,1.8,2470.091,13.32,0.024,206.6
2019-08-21T03:19:47,42.805,6.029,0.005,-0.017,-0.018,103.0,106.0,100.0,13.3,1505.3,328.1,-0.7,1.8,2470.09,13.32,0.017,163.6
2019-08-21T03:22:48,42.805,6.029,0.037,-0.028,0.021,103.0,105.0,100.0,13.4,1505.3,325.7,-0.7,1.8,2470.07,13.32,0.046,127.1
2019-08-21T03:25:49,42.805,6.029,0.0,-0.027,-0.037,103.0,105.0,101.0,13.3,1505.3,324.7,-0.7,1.8,2470.064,13.32,0.026,180.0
2019-08-21T03:28:50,42.805,6.029,0.009,-0.012,-0.024,103.0,104.0,100.0,13.4,1505.3,324.7,-0.7,1.8,2470.082,13.32,0.015,143.1
2019-08-21T03:31:51,42.805,6.029,-0.018,-0.015,-0.063,103.0,105.0,100.0,13.4,1505.3,324.2,-0.7,1.8,2470.092,13.32,0.023,230.2
2019-08-21T03:34:52,42.805,6.029,0.027,-0.005,-0.006,104.0,103.0,98.0,13.3,1505.3,327.1,-0.7,1.8,2470.081,13.32,0.027,100.5
2019-08-21T03:37:53,42.805,6.029,0.014,-0.013,-0.023,103.0,105.0,101.0,13.3,1505.3,324.5,-0.7,1.8,2470.054,13.32,0.019,132.9
2019-08-21T03:40:54,42.805,6.029,0.004,-0.025,-0.018,104.0,106.0,101.0,13.4,1505.3,325.0,-0.7,1.9,2470.065,13.32,0.025,170.9
2019-08-21T03:43:55,42.805,6.029,-0.034,-0.019,-0.007,103.0,106.0,101.0,13.4,1505.3,325.9,-0.7,1.8,2470.106,13.32,0.038,240.8
2019-08-21T03:46:56,42.805,6.029,0.004,-0.022,-0.012,102.0,104.0,100.0,13.4,1505.3,325.2,-0.7,1.9,2470.063,13.32,0.022,169.7
2019-08-21T03:49:57,42.805,6.029,0.029,-0.022,-0.036,103.0,105.0,100.0,13.4,1505.3,326.6,-0.7,1.9,2470.056,13.32,0.036,127.2
2019-08-21T03:52:58,42.805,6.029,-0.016,-0.007,-0.024,103.0,104.0,100.0,13.3,1505.3,323.3,-0.7,1.8,2470.076,13.32,0.017,246.4
2019-08-21T03:55:59,42.805,6.029,0.024,0.003,-0.007,104.0,104.0,101.0,13.3,1505.3,325.3,-0.7,1.8,2470.086,13.32,0.024,82.9
2019-08-21T03:59:00,42.805,6.029,0.009,-0.026,-0.02,103.0,105.0,100.0,13.4,1505.3,326.5,-0.8,1.8,2470.071,13.32,0.027,160.9
2019-08-21T04:02:01,42.805,6.029,0.012,-0.02,-0.03,104.0,106.0,100.0,13.4,1505.3,324.7,-0.7,1.8,2470.049,13.32,0.023,149.0
2019-08-21T04:05:02,42.805,6.029,0.013,-0.009,0.003,104.0,106.0,100.0,13.3,1505.3,324.2,-0.7,1.8,2470.106,13.32,0.015,124.7
2019-08-21T04:08:03,42.805,6.029,-0.02,-0.036,0.007,103.0,106.0,101.0,13.4,1505.3,324.3,-0.8,1.9,2470.059,13.32,0.041,209.1
2019-08-21T04:11:04,42.805,6.029,-0.004,-0.03,-0.054,103.0,104.0,100.0,13.4,1505.3,324.7,-0.7,1.9,2470.07,13.32,0.03,187.6
2019-08-21T04:14:05,42.805,6.029,0.016,-0.028,0.007,104.0,106.0,99.0,13.4,1505.3,325.6,-0.7,1.8,2470.075,13.32,0.032,150.3
2019-08-21T04:17:06,42.805,6.029,0.009,-0.03,-0.001,102.0,104.0,100.0,13.4,1505.3,323.3,-0.7,1.8,2470.072,13.32,0.031,163.3
2019-08-21T04:20:07,42.805,6.029,0.017,-0.023,0.013,102.0,103.0,101.0,13.4,1505.3,325.0,-0.7,1.8,2470.052,13.32,0.028,143.5
2019-08-21T04:23:08,42.805,6.029,0.009,-0.009,-0.022,103.0,105.0,101.0,13.4,1505.3,326.6,-0.7,1.9,2470.1,13.32,0.012,135.0
2019-08-21T04:26:09,42.805,6.029,0.007,-0.011,0.008,104.0,103.0,100.0,13.4,1505.3,328.3,-0.7,1.8,2470.053,13.32,0.013,147.5
2019-08-21T04:29:10,42.805,6.029,0.001,-0.033,-0.028,103.0,104.0,101.0,13.4,1505.3,326.7,-0.7,1.8,2470.043,13.32,0.033,178.3
2019-08-21T04:32:11,42.805,6.029,0.0,-0.038,-0.023,104.0,104.0,101.0,13.4,1505.3,325.6,-0.7,1.8,2470.092,13.32,0.038,180.0
2019-08-21T04:35:12,42.805,6.029,-0.002,-0.039,-0.039,104.0,105.0,99.0,13.4,1505.3,324.8,-0.7,1.8,2470.084,13.32,0.039,182.9
2019-08-21T04:38:13,42.805,6.029,0.015,-0.036,-0.011,103.0,103.0,100.0,13.3,1505.3,326.5,-0.7,1.8,2470.014,13.32,0.039,157.4
2019-08-21T04:41:14,42.805,6.029,0.014,-0.017,-0.056,104.0,104.0,100.0,13.3,1505.3,326.8,-0.7,1.8,2470.035,13.32,0.022,140.5
2019-08-21T04:44:15,42.805,6.029,0.008,-0.014,-0.001,104.0,104.0,100.0,13.4,1505.3,326.1,-0.8,1.8,2470.084,13.32,0.016,150.3
2019-08-21T04:47:16,42.805,6.029,0.005,-0.025,0.004,103.0,105.0,101.0,13.3,1505.3,326.4,-0.7,1.8,2470.079,13.32,0.025,168.7
2019-08-21T04:50:17,42.805,6.029,0.002,-0.016,-0.042,104.0,103.0,100.0,13.4,1505.3,326.8,-0.7,1.8,2470.059,13.32,0.016,172.9
2019-08-21T04:53:18,42.805,6.029,-0.003,-0.025,-0.041,102.0,105.0,100.0,13.4,1505.3,326.2,-0.8,1.8,2470.037,13.32,0.025,186.8
2019-08-21T04:56:19,42.805,6.029,-0.005,-0.026,-0.025,104.0,105.0,100.0,13.4,1505.3,327.2,-0.7,1.8,2470.114,13.32,0.026,190.9
2019-08-21T04:59:20,42.805,6.029,0.012,-0.033,-0.057,104.0,104.0,99.0,13.4,1505.3,326.8,-0.7,1.9,2470.051,13.32,0.035,160.0
2019-08-21T05:02:21,42.805,6.029,0.02,-0.009,-0.026,102.0,103.0,99.0,13.4,1505.3,325.7,-0.7,1.9,2470.039,13.32,0.021,114.2
2019-08-21T05:05:22,42.805,6.029,0.027,-0.033,0.002,103.0,104.0,100.0,13.4,1505.3,326.1,-0.7,1.9,2470.051,13.32,0.042,140.7
2019-08-21T05:08:23,42.805,6.029,0.018,-0.032,-0.013,104.0,104.0,100.0,13.3,1505.3,323.2,-0.7,1.8,2470.045,13.32,0.036,150.6
2019-08-21T05:11:24,42.805,6.029,-0.002,-0.015,-0.022,105.0,105.0,100.0,13.4,1505.3,327.0,-0.7,1.8,2470.06,13.32,0.015,187.6
2019-08-21T05:14:25,42.805,6.029,0.016,-0.021,-0.006,102.0,104.0,101.0,13.4,1505.3,325.2,-0.7,1.8,2470.05,13.32,0.026,142.7
2019-08-21T05:17:26,42.805,6.029,-0.004,-0.044,-0.035,102.0,104.0,100.0,13.3,1505.3,324.1,-0.7,1.8,2470.103,13.32,0.044,185.2
2019-08-21T05:20:27,42.805,6.029,0.0,-0.017,-0.026,103.0,105.0,100.0,13.4,1505.3,325.7,-0.7,1.8,2470.068,13.32,0.017,180.0
2019-08-21T05:23:28,42.805,6.029,0.003,-0.023,0.0,105.0,104.0,101.0,13.3,1505.3,325.6,-0.7,1.8,2470.076,13.32,0.023,172.6
2019-08-21T05:26:29,42.805,6.029,0.019,-0.016,-0.033,104.0,104.0,100.0,13.4,1505.3,327.5,-0.7,1.8,2470.072,13.32,0.024,130.1
2019-08-21T05:29:30,42.805,6.029,0.011,-0.029,-0.002,103.0,105.0,101.0,13.3,1505.3,323.5,-0.7,1.8,2470.045,13.32,0.031,159.2
2019-08-21T05:32:31,42.805,6.029,0.005,-0.018,-0.006,104.0,105.0,100.0,13.4,1505.3,324.6,-0.7,1.8,2470.064,13.32,0.018,164.5
2019-08-21T05:35:32,42.805,6.029,0.015,-0.046,-0.02,103.0,104.0,100.0,13.4,1505.3,324.2,-0.7,1.8,2470.082,13.32,0.048,161.9
2019-08-21T05:38:33,42.805,6.029,0.017,-0.005,-0.013,103.0,104.0,99.0,13.3,1505.3,325.5,-0.7,1.8,2470.051,13.32,0.017,106.4
2019-08-21T05:41:34,42.805,6.029,0.0,-0.024,-0.038,103.0,104.0,100.0,13.4,1505.3,326.4,-0.7,1.8,2470.074,13.32,0.024,180.0
2019-08-21T05:44:35,42.805,6.029,0.004,-0.006,0.005,104.0,104.0,100.0,13.3,1505.3,328.4,-0.7,1.9,2470.04,13.32,0.007,146.3
2019-08-21T05:47:36,42.805,6.029,-0.001,-0.023,-0.034,103.0,104.0,98.0,13.3,1505.3,325.3,-0.7,1.8,2470.067,13.32,0.023,182.5
2019-08-21T05:50:37,42.805,6.029,0.009,-0.025,-0.025,104.0,103.0,99.0,13.4,1505.3,324.8,-0.8,1.8,2470.085,13.32,0.026,160.2
2019-08-21T05:53:38,42.805,6.029,0.008,-0.015,-0.02,103.0,103.0,100.0,13.4,1505.3,324.9,-0.7,1.8,2470.028,13.32,0.017,151.9
2019-08-21T05:56:39,42.805,6.029,0.005,-0.014,0.016,103.0,103.0,101.0,13.4,1505.3,327.6,-0.7,1.8,2470.007,13.32,0.014,160.4
2019-08-21T05:59:40,42.805,6.029,0.011,-0.011,-0.005,103.0,104.0,100.0,13.4,1505.3,323.3,-0.7,1.8,2470.078,13.32,0.015,135.0
2019-08-21T06:02:41,42.805,6.029,0.0,-0.013,-0.026,104.0,104.0,100.0,13.3,1505.3,324.3,-0.7,1.8,2470.083,13.32,0.013,180.0
2019-08-21T06:05:42,42.805,6.029,0.011,-0.002,0.019,103.0,103.0,99.0,13.4,1505.3,326.8,-0.7,1.8,2470.093,13.32,0.011,100.3
2019-08-21T06:08:43,42.805,6.029,-0.016,-0.022,-0.038,103.0,103.0,99.0,13.3,1505.3,325.6,-0.7,1.8,2470.048,13.32,0.027,216.0
2019-08-21T06:11:44,42.805,6.029,-0.015,-0.002,-0.007,102.0,105.0,100.0,13.4,1505.3,324.1,-0.7,1.9,2470.07,13.32,0.015,262.4
2019-08-21T06:14:45,42.805,6.029,0.017,-0.015,-0.039,102.0,105.0,100.0,13.4,1505.3,323.6,-0.7,1.8,2470.068,13.32,0.022,131.4
2019-08-21T06:17:46,42.805,6.029,-0.032,-0.032,-0.031,102.0,104.0,100.0,13.4,1505.3,324.3,-0.7,1.8,2470.072,13.32,0.045,225.0
2019-08-21T06:20:47,42.805,6.029,0.023,-0.026,-0.01,102.0,105.0,99.0,13.4,1505.3,323.4,-0.7,1.9,2470.067,13.32,0.034,138.5
2019-08-21T06:23:48,42.805,6.029,0.011,-0.003,-0.015,102.0,105.0,99.0,13.4,1505.3,324.2,-0.7,1.8,2470.06,13.32,0.011,105.3
2019-08-21T06:26:49,42.805,6.029,0.027,-0.004,-0.034,103.0,103.0,98.0,13.3,1505.3,323.8,-0.7,1.8,2470.069,13.32,0.027,98.4
2019-08-21T06:29:50,42.805,6.029,-0.015,-0.011,-0.004,102.0,104.0,101.0,13.3,1505.3,326.4,-0.7,1.8,2470.093,13.32,0.018,233.7
2019-08-21T06:32:51,42.805,6.029,0.009,-0.026,0.003,105.0,104.0,99.0,13.4,1505.3,324.2,-0.7,1.8,2470.047,13.32,0.027,160.9
2019-08-21T06:35:52,42.805,6.029,-0.022,-0.012,-0.031,104.0,103.0,101.0,13.3,1505.3,324.7,-0.7,1.8,2470.079,13.32,0.025,241.4
2019-08-21T06:38:53,42.805,6.029,-0.01,-0.018,-0.036,104.0,104.0,100.0,13.4,1505.3,327.3,-0.7,1.8,2470.052,13.32,0.02,209.1
2019-08-21T06:41:54,42.805,6.029,0.016,-0.019,-0.04,103.0,104.0,99.0,13.4,1505.3,325.6,-0.7,1.8,2470.06,13.32,0.024,139.9
2019-08-21T06:44:55,42.805,6.029,0.019,-0.039,-0.036,103.0,103.0,99.0,13.4,1505.3,325.4,-0.7,1.9,2470.07,13.32,0.043,154.0
2019-08-21T06:47:56,42.805,6.029,0.007,-0.017,-0.034,103.0,104.0,100.0,13.4,1505.3,327.0,-0.7,1.8,2470.065,13.32,0.018,157.6
2019-08-21T06:50:57,42.805,6.029,0.026,-0.016,0.0,103.0,105.0,99.0,13.4,1505.3,326.0,-0.7,1.9,2470.079,13.32,0.03,121.6
2019-08-21T06:53:58,42.805,6.029,0.018,-0.014,0.001,102.0,105.0,101.0,13.4,1505.3,323.7,-0.7,1.9,2470.061,13.32,0.022,127.9
2019-08-21T06:56:59,42.805,6.029,0.022,-0.028,-0.034,104.0,103.0,100.0,13.4,1505.3,324.7,-0.7,1.9,2470.018,13.32,0.035,141.8
2019-08-21T07:00:00,42.805,6.029,0.008,-0.021,-0.03,104.0,104.0,99.0,13.4,1505.3,326.5,-0.7,1.8,2470.065,13.32,0.022,159.1
2019-08-21T07:03:01,42.805,6.029,-0.006,0.006,-0.009,102.0,103.0,100.0,13.4,1505.3,325.1,-0.7,1.8,2470.125,13.32,0.008,315.0
2019-08-21T07:06:02,42.805,6.029,0.015,-0.013,-0.005,102.0,104.0,101.0,13.4,1505.3,324.2,-0.7,1.8,2470.078,13.32,0.019,130.9
2019-08-21T07:09:03,42.805,6.029,0.008,-0.041,-0.023,102.0,104.0,100.0,13.4,1505.3,325.6,-0.7,1.8,2470.092,13.32,0.041,169.0
2019-08-21T07:12:04,42.805,6.029,-0.013,-0.016,-0.011,102.0,104.0,100.0,13.4,1505.3,327.4,-0.7,1.9,2470.066,13.32,0.02,219.1
2019-08-21T07:15:05,42.805,6.029,-0.003,-0.031,-0.027,104.0,104.0,99.0,13.4,1505.3,326.4,-0.7,1.9,2470.115,13.32,0.031,185.5
2019-08-21T07:18:06,42.805,6.029,-0.002,-0.011,-0.038,103.0,105.0,99.0,13.4,1505.3,326.2,-0.7,1.8,2470.111,13.32,0.011,190.3
2019-08-21T07:21:07,42.805,6.029,-0.016,-0.017,-0.033,103.0,105.0,100.0,13.4,1505.3,324.9,-0.7,1.8,2470.106,13.32,0.023,223.3
2019-08-21T07:24:08,42.805,6.029,0.004,-0.028,-0.013,103.0,104.0,100.0,13.4,1505.3,323.0,-0.7,1.8,2470.089,13.32,0.028,171.9
2019-08-21T07:27:09,42.805,6.029,0.021,-0.011,-0.014,103.0,103.0,100.0,13.3,1505.3,328.4,-0.7,1.8,2470.098,13.32,0.023,117.6
2019-08-21T07:30:10,42.805,6.029,0.004,-0.029,-0.006,103.0,105.0,100.0,13.3,1505.3,324.4,-0.7,1.8,2470.082,13.32,0.029,172.2
2019-08-21T07:33:11,42.805,6.029,-0.004,-0.019,-0.042,105.0,105.0,100.0,13.4,1505.3,324.7,-0.7,1.8,2470.103,13.32,0.019,191.9
2019-08-21T07:36:12,42.805,6.029,0.013,-0.036,-0.019,104.0,104.0,99.0,13.4,1505.3,326.8,-0.7,1.8,2470.129,13.32,0.038,160.1
2019-08-21T07:39:13,42.805,6.029,-0.012,-0.016,-0.02,103.0,102.0,100.0,13.3,1505.3,326.3,-0.7,1.8,2470.069,13.32,0.02,216.9
2019-08-21T07:42:14,42.805,6.029,-0.003,-0.024,-0.001,104.0,104.0,100.0,13.4,1505.3,326.7,-0.7,1.8,2470.142,13.32,0.024,187.1
2019-08-21T07:45:15,42.805,6.029,-0.005,0.0,-0.019,103.0,104.0,100.0,13.3,1505.3,325.9,-0.7,1.8,2470.059,13.32,0.005,270.0
2019-08-21T07:48:16,42.805,6.029,0.021,-0.021,-0.036,102.0,104.0,99.0,13.4,1505.3,327.1,-0.7,1.9,2470.111,13.32,0.029,135.0
2019-08-21T07:51:17,42.805,6.029,0.008,-0.004,0.006,102.0,105.0,100.0,13.3,1505.3,327.2,-0.7,1.9,2470.104,13.32,0.008,116.6
2019-08-21T07:54:18,42.805,6.029,0.003,-0.015,-0.054,104.0,105.0,100.0,13.4,1505.3,324.9,-0.7,1.9,2470.098,13.32,0.015,168.7
2019-08-21T07:57:19,42.805,6.029,0.019,-0.028,-0.021,105.0,105.0,99.0,13.3,1505.3,323.7,-0.7,1.8,2470.113,13.32,0.033,145.8
2019-08-21T08:00:20,42.805,6.029,0.013,-0.045,-0.009,103.0,103.0,100.0,13.4,1505.3,326.5,-0.7,1.9,2470.148,13.32,0.046,163.9
2019-08-21T08:03:21,42.805,6.029,-0.015,-0.01,-0.018,103.0,104.0,100.0,13.3,1505.3,326.6,-0.7,1.8,2470.116,13.32,0.018,236.3
2019-08-21T08:06:22,42.805,6.029,0.022,-0.024,-0.022,103.0,104.0,100.0,13.4,1505.3,327.7,-0.7,1.8,2470.128,13.32,0.032,137.5
2019-08-21T08:09:23,42.805,6.029,-0.006,-0.016,-0.025,103.0,105.0,100.0,13.4,1505.3,325.9,-0.7,1.8,2470.12,13.32,0.017,200.6
2019-08-21T08:12:24,42.805,6.029,0.014,-0.024,-0.001,103.0,105.0,100.0,13.4,1505.3,325.3,-0.7,1.8,2470.152,13.32,0.027,149.7
2019-08-21T08:15:25,42.805,6.029,0.037,-0.004,0.012,105.0,105.0,102.0,13.3,1505.3,325.0,-0.7,1.8,2470.131,13.32,0.037,96.2
2019-08-21T08:18:26,42.805,6.029,0.011,-0.031,-0.003,102.0,103.0,100.0,13.4,1505.3,322.9,-0.7,1.8,2470.111,13.32,0.032,160.5
2019-08-21T08:21:27,42.805,6.029,-0.021,-0.03,-0.003,102.0,105.0,100.0,13.4,1505.3,324.3,-0.7,1.8,2470.111,13.32,0.036,215.0
2019-08-21T08:24:28,42.805,6.029,-0.001,-0.009,-0.054,103.0,103.0,99.0,13.4,1505.3,326.6,-0.7,1.8,2470.161,13.32,0.009,186.3
2019-08-21T08:27:29,42.805,6.029,0.02,-0.018,-0.036,102.0,104.0,99.0,13.4,1505.3,323.8,-0.7,1.8,2470.14,13.32,0.026,132.0
2019-08-21T08:30:30,42.805,6.029,0.003,-0.024,-0.02,102.0,105.0,99.0,13.4,1505.3,324.2,-0.7,1.8,2470.144,13.32,0.024,172.9
2019-08-21T08:33:31,42.805,6.029,-0.011,-0.015,-0.018,103.0,103.0,99.0,13.4,1505.3,322.9,-0.7,1.8,2470.124,13.32,0.018,216.3
2019-08-21T08:36:32,42.805,6.029,0.012,-0.006,-0.012,103.0,103.0,100.0,13.4,1505.3,325.1,-0.7,1.8,2470.118,13.32,0.013,116.6
2019-08-21T08:39:33,42.805,6.029,0.014,-0.015,0.028,104.0,104.0,100.0,13.4,1505.3,323.6,-0.7,1.8,2470.178,13.32,0.02,137.0
2019-08-21T08:42:34,42.805,6.029,0.016,-0.032,-0.013,103.0,104.0,100.0,13.3,1505.3,324.7,-0.7,1.8,2470.18,13.32,0.035,153.4
2019-08-21T08:45:35,42.805,6.029,-0.015,-0.02,-0.023,103.0,104.0,100.0,13.4,1505.3,327.9,-0.7,1.8,2470.113,13.32,0.025,216.9
2019-08-21T08:48:36,42.805,6.029,0.007,-0.021,-0.03,102.0,104.0,100.0,13.3,1505.3,325.9,-0.7,1.8,2470.106,13.32,0.022,161.6
2019-08-21T08:51:37,42.805,6.029,0.002,-0.013,0.001,102.0,104.0,102.0,13.3,1505.3,326.3,-0.7,1.9,2470.148,13.32,0.013,171.3
2019-08-21T08:54:38,42.805,6.029,0.006,-0.009,-0.017,102.0,104.0,98.0,13.4,1505.3,323.3,-0.7,1.8,2470.137,13.32,0.01,146.3
2019-08-21T08:57:39,42.805,6.029,-0.022,-0.017,-0.008,103.0,104.0,99.0,13.4,1505.3,324.8,-0.8,1.9,2470.116,13.32,0.027,232.3
2019-08-21T09:00:40,42.805,6.029,-0.006,-0.015,-0.037,103.0,103.0,100.0,13.4,1505.3,326.5,-0.7,1.8,2470.142,13.32,0.016,201.8
2019-08-21T09:03:41,42.805,6.029,-0.007,-0.021,-0.038,102.0,104.0,99.0,13.4,1505.3,324.7,-0.7,1.8,2470.148,13.32,0.022,198.4
2019-08-21T09:06:42,42.805,6.029,-0.021,-0.019,-0.036,102.0,104.0,100.0,13.3,1505.3,327.8,-0.7,1.8,2470.146,13.32,0.028,227.9
2019-08-21T09:09:43,42.805,6.029,-0.044,0.018,-0.017,104.0,105.0,99.0,13.4,1505.3,324.9,-0.7,1.9,2470.151,13.32,0.047,292.2
2019-08-21T09:12:44,42.805,6.029,0.013,-0.015,-0.002,103.0,104.0,100.0,13.3,1505.3,323.2,-0.7,1.8,2470.115,13.32,0.019,139.1
2019-08-21T09:15:45,42.805,6.029,0.005,-0.014,-0.041,103.0,104.0,99.0,13.4,1505.3,323.8,-0.7,1.8,2470.142,13.33,0.014,160.4
2019-08-21T09:18:46,42.805,6.029,0.008,-0.009,0.0,104.0,103.0,101.0,13.4,1505.3,327.4,-0.7,1.8,2470.151,13.32,0.012,138.4
2019-08-21T09:21:47,42.805,6.029,0.029,-0.01,-0.017,103.0,103.0,99.0,13.4,1505.3,325.7,-0.7,1.8,2470.15,13.32,0.03,109.0
2019-08-21T09:24:48,42.805,6.029,0.015,-0.021,-0.014,102.0,105.0,99.0,13.3,1505.3,325.0,-0.7,1.8,2470.187,13.32,0.025,144.5